Back to catalog

NAVIGATOR

AliveAmateur RadioSSO
NORAD 69888·PAYLOAD·🇺🇸 United States
This satellite name has not been confirmed by official sources yet.

Launched Jul 7, 2026 from Vandenberg Space Force Base

Loading…

Next Passes (next 24 hours)

TLE

FreshSource: Space-Track

Epoch: Sep 14, 2026, 04:17 UTC

1 69888U 26156V   26257.17872861  .00001451  00000-0  15047-3 0  9992
2 69888  97.7485 156.4653 0003250 285.0817  75.0042 14.91510114 10109

Track NAVIGATOR in real time with AllMySat

Download on the App Store